[[{"header":{"parameterUnit":"m.s-1","parameterCategory":1,"la1":30.2991,"la2":30.254,"lo1":-89.0895,"lo2":-89.0444,"dy":0.0017,"dx":0.0017,"nx":28,"ny":28,"refTime":"2024-08-05T09:00:00:Z","depth":0,"parameterNumber":2,"parameterNumberName":"U-component_of_WINDS"},"data":[0,0,0,0,0,0,0,0,0,0,0,0,0,0,0,0,0,0,0,0,0,0,0,0,0,0,0,0,0,0,0,0,0,0,0,0,0,0,0,0,0,0,0,0,0,0,0,0,0,0,0,0,0,0,0,0,0,0,-0.7186,-0.7187,0,-0.7263,-0.7264,-0.7264,-0.7255,-0.7254,-0.7253,-0.7252,-0.7329,-0.7332,-0.7335,0,0,0,0,0,0,0,0,0,0,0,0,0,-0.7029,-0.7032,-0.7186,-0.7187,-0.7188,-0.7263,-0.7264,-0.7265,-0.7255,-0.7254,-0.7252,-0.7251,-0.7328,-0.7331,-0.7335,0,0,0,0,0,0,0,0,0,0,0,0,0,-0.7101,-0.7033,-0.7186,-0.7192,-0.7194,-0.7262,-0.7264,-0.7265,-0.7256,-0.7254,-0.7252,-0.725,-0.7326,-0.7331,-0.7336,-0.7403,0,0,-0.7351,-0.7353,0,0,0,0,0,0,0,0,-0.7097,-0.7106,-0.719,-0.7192,-0.7194,-0.7247,-0.7237,-0.7311,-0.7256,-0.7232,-0.7252,-0.7249,-0.7303,-0.731,-0.7328,-0.7406,-0.7409,-0.7351,-0.7354,-0.7356,-0.7357,0,0,0,0,0,0,0,-0.7092,-0.7103,-0.7216,-0.7192,-0.7194,-0.7191,-0.7199,-0.7251,-0.7277,-0.7234,-0.7234,-0.7243,-0.7304,-0.7324,-0.733,-0.7411,-0.7351,-0.7355,-0.7358,-0.736,-0.7546,-0.7548,0,0,0,0,0,0,-0.7085,-0.7099,-0.7214,-0.7218,-0.714,-0.7195,-0.7204,-0.7232,-0.7276,-0.7281,-0.7244,-0.7242,-0.7316,-0.7324,-0.7333,-0.7414,-0.7356,-0.736,-0.7363,-0.7544,-0.7547,-0.7549,0,0,0,0,0,0,-0.7082,-0.7096,-0.7211,-0.7159,-0.7173,-0.72,-0.7231,-0.7235,-0.7254,-0.7284,-0.7289,-0.726,-0.7315,-0.7326,-0.7385,-0.7416,-0.7363,-0.7367,-0.7542,-0.7545,-0.7548,-0.7576,0,0,0,0,0,0,-0.7078,-0.7095,-0.7121,-0.7159,-0.7176,-0.7263,-0.7233,-0.7237,-0.7263,-0.7261,-0.73,-0.7305,-0.7314,-0.7378,-0.739,-0.7422,-0.7371,-0.7539,-0.7543,-0.7547,-0.7573,-0.758,-0.7586,0,0,0,0,0,-0.7072,-0.7126,-0.7122,-0.7136,-0.7209,-0.7265,-0.7274,-0.7285,-0.7265,-0.7292,-0.7311,-0.7304,-0.741,-0.7384,-0.7398,-0.7431,-0.7537,-0.7542,-0.7547,-0.757,-0.7579,-0.7586,0,0,0,0,0,0,-0.709,-0.7131,-0.7128,-0.7195,-0.7227,-0.7263,-0.7297,-0.7294,-0.7331,-0.7327,-0.7338,-0.7347,-0.7407,-0.7425,-0.7395,-0.7498,-0.7471,-0.7479,-0.7484,-0.7493,-0.75,-0.7494,-0.7375,0,0,0,0,0,-0.7102,-0.7144,-0.7177,-0.7233,-0.7249,-0.727,-0.7295,-0.73,-0.7333,-0.7346,-0.7369,-0.74,-0.7441,-0.7468,-0.7507,-0.7575,-0.7583,-0.7604,-0.7611,-0.7616,-0.7623,-0.766,-0.767,-0.7564,-0.7564,-0.7564,0,0,-0.7127,-0.7154,-0.718,-0.7238,-0.7263,-0.7306,-0.7282,-0.7328,-0.736,-0.7353,-0.7411,-0.7428,-0.7464,-0.7528,-0.7557,-0.7545,-0.7654,-0.7622,-0.7626,-0.763,-0.7666,-0.7676,-0.7685,-0.7567,-0.7567,-0.7566,0,0,-0.7194,-0.7219,-0.7269,-0.7295,-0.7332,-0.7346,-0.7358,-0.7394,-0.7406,-0.7464,-0.746,-0.7497,-0.7567,-0.7592,-0.7614,-0.769,-0.7685,-0.7702,-0.7738,-0.7774,-0.7782,-0.779,-0.7817,-0.7826,-0.7708,-0.7709,-0.7709,0,-0.7221,-0.7286,-0.7295,-0.7342,-0.7368,-0.7363,-0.7413,-0.7437,-0.7485,-0.7503,-0.7488,-0.7575,-0.7598,-0.7668,-0.7687,-0.7704,-0.7718,-0.7699,-0.778,-0.7788,-0.7795,-0.7821,-0.7831,-0.771,-0.771,-0.771,-0.771,0,-0.7316,-0.7361,-0.7397,-0.7444,-0.7473,-0.7522,-0.7538,-0.7566,-0.7567,-0.7582,-0.7641,-0.7669,-0.7713,-0.773,-0.7732,-0.78,-0.7791,-0.7778,-0.7752,-0.7807,-0.7831,-0.7842,-0.7713,-0.7713,-0.7712,-0.7711,0,0,-0.7399,-0.745,-0.7463,-0.7485,-0.7525,-0.756,-0.7607,-0.7651,-0.7675,-0.7708,-0.7748,-0.7806,-0.7795,-0.782,-0.7824,-0.7856,-0.7914,-0.7839,-0.784,-0.7853,-0.799,-0.8,-0.8012,-0.791,-0.7912,-0.7913,-0.7987,0,-0.7472,-0.7557,-0.7566,-0.7642,-0.7683,-0.7678,-0.7719,-0.7748,-0.7763,-0.7799,-0.7814,-0.7856,-0.7837,-0.7852,-0.7883,-0.79,-0.7942,-0.7895,-0.7947,-0.7949,-0.794,-0.8025,-0.8036,-0.8104,-0.7997,-0.7998,-0.8,0,-0.7568,-0.7604,-0.7684,-0.7719,-0.7736,-0.7773,-0.7814,-0.7849,-0.7881,-0.7889,-0.7916,-0.7917,-0.7965,-0.7935,-0.8001,-0.7969,-0.799,-0.8002,-0.8005,-0.8011,-0.7979,-0.8034,-0.8126,-0.8137,-0.8015,-0.8014,-0.8013,0,-0.7621,-0.769,-0.7747,-0.7765,-0.7806,-0.7832,-0.785,-0.7881,-0.7906,-0.7941,-0.7957,-0.7997,-0.8019,-0.8049,-0.806,-0.8037,-0.8125,-0.8097,-0.8133,-0.8133,-0.8153,-0.8152,-0.8251,-0.8165,-0.8165,-0.8165,-0.8164,0,-0.7702,-0.7751,-0.7771,-0.7806,-0.7861,-0.787,-0.7923,-0.794,-0.7967,-0.8004,-0.8002,-0.8037,-0.8048,-0.8085,-0.8093,-0.8146,-0.8156,-0.8164,-0.8166,-0.8165,-0.8164,-0.818,-0.8176,-0.8167,-0.8167,-0.8166,-0.8166,0,-0.7772,-0.7787,-0.7848,-0.7882,-0.7892,-0.7931,-0.7959,-0.7992,-0.8005,-0.8053,-0.8064,-0.8085,-0.8128,-0.8141,-0.8192,-0.8198,-0.826,-0.8257,-0.825,-0.8251,-0.8286,-0.8283,-0.84,-0.8416,-0.8319,-0.832,-0.832,0,-0.7823,-0.7861,-0.7898,-0.7924,-0.7943,-0.7984,-0.801,-0.8019,-0.8046,-0.8085,-0.8113,-0.8156,-0.8191,-0.8259,-0.8278,-0.8317,-0.8316,-0.8354,-0.8322,-0.8319,-0.8317,-0.8315,-0.8319,-0.836,-0.8361,-0.8362,-0.8363,0,-0.7912,-0.7918,-0.7955,-0.7996,-0.8027,-0.8059,-0.809,-0.811,-0.8124,-0.8154,-0.8198,-0.8225,-0.8277,-0.832,-0.8359,-0.8377,-0.8372,-0.8373,-0.8383,-0.8383,-0.8378,-0.8382,-0.8268,-0.837,-0.837,-0.8369,-0.8369,-0.8368,-0.7975,-0.8008,-0.804,-0.8082,-0.8106,-0.8134,-0.8167,-0.8184,-0.8221,-0.8266,-0.8268,-0.8316,-0.8346,-0.8398,-0.8418,-0.8455,-0.8444,-0.8459,-0.8463,-0.8467,-0.847,-0.8371,-0.8462,-0.8461,-0.8461,-0.8461,-0.8461,0,-0.8065,-0.8084,-0.8123,-0.8166,-0.8199,-0.8191,-0.8225,-0.8252,-0.8295,-0.8323,-0.8357,-0.8407,-0.8448,-0.8469,-0.8509,-0.8534,-0.8533,-0.8545,-0.8543,-0.8548,-0.8477,-0.8465,-0.8545,-0.8545,-0.8545,-0.8545,-0.8545,-0.8545,-0.8115,-0.8171,-0.818,-0.8247,-0.8267,-0.8314,-0.8334,-0.8359,-0.8382,-0.8439,-0.8472,-0.8486,-0.8512,-0.8553,-0.859,-0.8595,-0.861,-0.8623,-0.8627,-0.8561,-0.8553,-0.8544,-0.8532,-0.8626,-0.8626,-0.8694,-0.8694,-0.8695]},{"header":{"parameterUnit":"m.s-1","parameterCategory":1,"la1":30.2991,"la2":30.254,"lo1":-89.0895,"lo2":-89.0444,"dy":0.0017,"dx":0.0017,"nx":28,"ny":28,"refTime":"2024-08-05T09:00:00:Z","depth":0,"parameterNumber":3,"parameterNumberName":"V-component_of_WINDS"},"data":[0,0,0,0,0,0,0,0,0,0,0,0,0,0,0,0,0,0,0,0,0,0,0,0,0,0,0,0,0,0,0,0,0,0,0,0,0,0,0,0,0,0,0,0,0,0,0,0,0,0,0,0,0,0,0,0,0,0,-2.8053,-2.8054,0,-2.8135,-2.8135,-2.8136,-2.8113,-2.8112,-2.811,-2.8108,-2.8189,-2.8192,-2.8196,0,0,0,0,0,0,0,0,0,0,0,0,0,-2.7874,-2.7878,-2.8053,-2.8054,-2.8055,-2.8134,-2.8136,-2.8137,-2.8114,-2.8112,-2.811,-2.8108,-2.8187,-2.8192,-2.8196,0,0,0,0,0,0,0,0,0,0,0,0,0,-2.7953,-2.7879,-2.8053,-2.8053,-2.8054,-2.8134,-2.8136,-2.8137,-2.8114,-2.8112,-2.8109,-2.8107,-2.8186,-2.8191,-2.8197,-2.828,0,0,-2.8214,-2.8216,0,0,0,0,0,0,0,0,-2.7949,-2.796,-2.8052,-2.8054,-2.8055,-2.8111,-2.8102,-2.8185,-2.8115,-2.8091,-2.8108,-2.8106,-2.8165,-2.8172,-2.8192,-2.8284,-2.8287,-2.8214,-2.8217,-2.822,-2.8221,0,0,0,0,0,0,0,-2.7944,-2.7956,-2.8085,-2.8054,-2.8055,-2.8048,-2.8057,-2.8117,-2.8141,-2.8093,-2.8092,-2.8102,-2.8165,-2.8187,-2.8194,-2.8289,-2.8214,-2.8219,-2.8222,-2.8224,-2.8451,-2.8454,0,0,0,0,0,0,-2.7938,-2.7952,-2.8083,-2.8088,-2.7995,-2.8053,-2.8063,-2.8096,-2.814,-2.8145,-2.8104,-2.81,-2.8179,-2.8188,-2.8197,-2.8297,-2.822,-2.8225,-2.8228,-2.8448,-2.8452,-2.8455,0,0,0,0,0,0,-2.7934,-2.795,-2.808,-2.802,-2.8036,-2.8059,-2.8096,-2.8099,-2.8121,-2.8148,-2.8152,-2.8123,-2.8177,-2.8189,-2.826,-2.8299,-2.8227,-2.8232,-2.8445,-2.8449,-2.8453,-2.8498,0,0,0,0,0,0,-2.7929,-2.7948,-2.7982,-2.8021,-2.8039,-2.8142,-2.8099,-2.8102,-2.8131,-2.8127,-2.8167,-2.8171,-2.8176,-2.8251,-2.8265,-2.8306,-2.8237,-2.8442,-2.8447,-2.8452,-2.8493,-2.8503,-2.8512,0,0,0,0,0,-2.7923,-2.7991,-2.7983,-2.7999,-2.8081,-2.8145,-2.8155,-2.8161,-2.8134,-2.8167,-2.8184,-2.817,-2.8293,-2.8259,-2.8274,-2.8317,-2.8439,-2.8446,-2.8452,-2.8489,-2.8501,-2.8512,0,0,0,0,0,0,-2.7955,-2.7996,-2.7988,-2.8071,-2.8105,-2.8141,-2.8182,-2.8174,-2.8215,-2.821,-2.8214,-2.8223,-2.8295,-2.8313,-2.8274,-2.8399,-2.8362,-2.8371,-2.8385,-2.8397,-2.8406,-2.84,-2.8241,0,0,0,0,0,-2.7972,-2.8021,-2.8054,-2.8124,-2.8141,-2.8159,-2.8187,-2.8188,-2.8223,-2.8237,-2.8259,-2.8292,-2.8338,-2.8368,-2.8412,-2.8495,-2.8503,-2.8532,-2.8541,-2.8549,-2.8557,-2.8601,-2.8614,-2.8475,-2.8475,-2.8475,0,0,-2.8007,-2.8035,-2.8066,-2.8131,-2.8157,-2.8207,-2.8171,-2.8226,-2.8262,-2.8245,-2.8313,-2.833,-2.8367,-2.8444,-2.8479,-2.8461,-2.8597,-2.8557,-2.8562,-2.8567,-2.8608,-2.8622,-2.8633,-2.8479,-2.8478,-2.8478,0,0,-2.8097,-2.8124,-2.8184,-2.8211,-2.8252,-2.8263,-2.8277,-2.8315,-2.8326,-2.8395,-2.8382,-2.8425,-2.8504,-2.8531,-2.8555,-2.8653,-2.8641,-2.8667,-2.8716,-2.8759,-2.877,-2.8779,-2.8814,-2.8826,-2.8675,-2.8675,-2.8675,0,-2.8135,-2.8211,-2.8216,-2.8272,-2.83,-2.8287,-2.8348,-2.8373,-2.8425,-2.8445,-2.8424,-2.8522,-2.8547,-2.8629,-2.8653,-2.8673,-2.8689,-2.8663,-2.8768,-2.8778,-2.8787,-2.8819,-2.8832,-2.8678,-2.8678,-2.8677,-2.8677,0,-2.8256,-2.8309,-2.8353,-2.8405,-2.8437,-2.8495,-2.8508,-2.854,-2.8538,-2.8551,-2.862,-2.8648,-2.8697,-2.8717,-2.8715,-2.8799,-2.8786,-2.8767,-2.8729,-2.8803,-2.8834,-2.8846,-2.8682,-2.8681,-2.868,-2.868,0,0,-2.837,-2.8423,-2.8439,-2.8461,-2.8504,-2.8545,-2.8601,-2.8649,-2.8677,-2.8713,-2.8759,-2.8826,-2.8808,-2.8835,-2.8836,-2.8874,-2.8949,-2.8849,-2.885,-2.8867,-2.9041,-2.9056,-2.907,-2.8941,-2.8943,-2.8945,-2.9038,0,-2.8463,-2.8564,-2.8569,-2.866,-2.8708,-2.8695,-2.8744,-2.8775,-2.8788,-2.8829,-2.8843,-2.889,-2.8863,-2.8879,-2.8916,-2.8932,-2.8984,-2.8925,-2.8983,-2.8985,-2.8975,-2.9087,-2.9103,-2.9189,-2.905,-2.9052,-2.9054,0,-2.8586,-2.8626,-2.8722,-2.8757,-2.8777,-2.8821,-2.8866,-2.8906,-2.894,-2.8946,-2.8976,-2.8971,-2.9027,-2.8988,-2.9064,-2.9024,-2.9048,-2.9059,-2.9063,-2.9068,-2.9024,-2.9095,-2.9217,-2.923,-2.9073,-2.9071,-2.907,0,-2.8658,-2.8736,-2.8804,-2.8824,-2.8866,-2.8897,-2.8916,-2.8948,-2.8976,-2.9014,-2.9032,-2.9076,-2.91,-2.9133,-2.914,-2.9111,-2.9216,-2.9177,-2.9222,-2.9222,-2.9246,-2.9244,-2.9373,-2.9261,-2.9261,-2.9261,-2.926,0,-2.8762,-2.8821,-2.8837,-2.8879,-2.8944,-2.8948,-2.9012,-2.9029,-2.9057,-2.91,-2.9091,-2.9131,-2.9137,-2.9179,-2.9184,-2.9246,-2.9257,-2.9263,-2.9264,-2.9264,-2.9263,-2.928,-2.9274,-2.9264,-2.9263,-2.9263,-2.9262,0,-2.8855,-2.8868,-2.894,-2.8975,-2.8984,-2.9031,-2.9059,-2.9098,-2.911,-2.9164,-2.9177,-2.9195,-2.9243,-2.9253,-2.931,-2.9313,-2.9387,-2.9382,-2.9376,-2.9376,-2.942,-2.9416,-2.9564,-2.9583,-2.9459,-2.946,-2.9461,0,-2.892,-2.8966,-2.9005,-2.9033,-2.9054,-2.91,-2.9129,-2.9135,-2.9165,-2.9206,-2.924,-2.9287,-2.9325,-2.9403,-2.942,-2.9463,-2.9458,-2.9507,-2.9465,-2.9463,-2.9459,-2.9456,-2.946,-2.9515,-2.9517,-2.9518,-2.9519,0,-2.9035,-2.9039,-2.9082,-2.9127,-2.9162,-2.9197,-2.923,-2.9254,-2.9264,-2.9298,-2.9348,-2.9377,-2.9435,-2.9482,-2.9525,-2.9542,-2.9532,-2.9532,-2.9545,-2.9545,-2.954,-2.9543,-2.9398,-2.9529,-2.9528,-2.9527,-2.9526,-2.9526,-2.9116,-2.9155,-2.9189,-2.9236,-2.9262,-2.9293,-2.9331,-2.9347,-2.9389,-2.9437,-2.9438,-2.9492,-2.9522,-2.9579,-2.9599,-2.964,-2.9625,-2.9643,-2.9648,-2.9652,-2.9656,-2.9534,-2.9648,-2.9648,-2.9648,-2.9647,-2.9647,0,-2.923,-2.9251,-2.9294,-2.9342,-2.9378,-2.9366,-2.9402,-2.9433,-2.9481,-2.9511,-2.9549,-2.9605,-2.965,-2.967,-2.9714,-2.9743,-2.974,-2.9755,-2.9753,-2.9757,-2.9668,-2.9653,-2.9757,-2.9757,-2.9757,-2.9757,-2.9757,-2.9757,-2.9294,-2.9359,-2.9367,-2.9444,-2.9464,-2.9518,-2.9539,-2.9567,-2.9591,-2.9655,-2.9692,-2.9705,-2.9731,-2.9776,-2.9816,-2.9821,-2.9837,-2.9855,-2.9857,-2.9774,-2.9763,-2.9752,-2.9738,-2.9858,-2.9858,-2.9942,-2.9943,-2.9943]}]]